Powrót do katalogu

STARLINK-30308

AktywnyŁącznośćVLEO
NORAD 57742·PAYLOAD·🇺🇸 United States

Wystrzelony Sep 1, 2023 z Cape Canaveral Space Force Station

Loading…

Następne Przeloty (najbliższe 24 godziny)

TLE

ŚwieżeSource: CelesTrak SupGP

Epoka: Sep 14, 2026, 22:11 UTC

1 57742C 23131L   26257.92479167 -.00009777  00000+0 -35418-3 0  2574
2 57742  43.0005 183.7791 0001295 253.1275 237.6353 15.27579344    14

Śledź STARLINK-30308 w czasie rzeczywistym z AllMySat

Download on the App Store